This is the latest recevied weather packets stored in our database for station/object IZ5MMH-4. If no packets are shown the sender has not sent any weather packets the latest 10 day(s).
| Time | Temp. | Humidity | Pressure | Rain* | Wind** | Luminosity | Snow |
|---|---|---|---|---|---|---|---|
| 1787656464 | 29.44° C | 71% | 1012.7 hPa | - | - | - | - |
| 1787655864 | 29.44° C | 73% | 1012.7 hPa | - | - | - | - |
| 1787655263 | 28.89° C | 72% | 1012.6 hPa | - | - | - | - |
| 1787654664 | 28.89° C | 71% | 1012.6 hPa | - | - | - | - |
| 1787654063 | 28.89° C | 71% | 1012.6 hPa | - | - | - | - |
| 1787653464 | 28.89° C | 72% | 1012.5 hPa | - | - | - | - |
| 1787652863 | 28.89° C | 70% | 1012.5 hPa | - | - | - | - |
| 1787652263 | 28.33° C | 69% | 1012.4 hPa | - | - | - | - |
| 1787651664 | 28.33° C | 67% | 1012.3 hPa | - | - | - | - |
| 1787651063 | 28.33° C | 65% | 1012.1 hPa | - | - | - | - |
| 1787650463 | 28.33° C | 64% | 1012.1 hPa | - | - | - | - |
| 1787649863 | 28.33° C | 63% | 1012.1 hPa | - | - | - | - |
| 1787649264 | 28.33° C | 63% | 1012 hPa | - | - | - | - |
| 1787648663 | 27.78° C | 64% | 1012 hPa | - | - | - | - |
| 1787648064 | 27.78° C | 67% | 1011.9 hPa | - | - | - | - |
| 1787647464 | 27.78° C | 68% | 1011.9 hPa | - | - | - | - |
| 1787646863 | 27.22° C | 68% | 1011.8 hPa | - | - | - | - |
| 1787646264 | 27.22° C | 70% | 1012 hPa | - | - | - | - |
| 1787645663 | 27.22° C | 72% | 1011.8 hPa | - | - | - | - |
| 1787645063 | 26.67° C | 74% | 1012 hPa | - | - | - | - |
| 1787644463 | 26.67° C | 76% | 1012 hPa | - | - | - | - |
| 1787643864 | 26.67° C | 80% | 1012 hPa | - | - | - | - |
| 1787643264 | 26.11° C | 80% | 1011.8 hPa | - | - | - | - |
| 1787642664 | 26.11° C | 78% | 1012 hPa | - | - | - | - |
| 1787642064 | 26.11° C | 76% | 1012.1 hPa | - | - | - | - |
* Rain since midnight (hover to see other rain measurements)
** Current wind speed in m/s (hover to see current wind gust speed)